Powrót do katalogu

COSMOS 1642

AktywnyNawigacjaLEO
NORAD 15624·PAYLOAD·🇷🇺 Russia

Wystrzelony Mar 21, 1985 z Plesetsk Cosmodrome

Loading…

Następne Przeloty (najbliższe 24 godziny)

TLE

ŚwieżeSource: Space-Track

Epoka: Sep 14, 2026, 07:32 UTC

1 15624U 85023H   26257.31438373 -.00000012  00000-0  24061-4 0  9991
2 15624  74.0592   7.7622 0050640  52.6885 334.5890 12.56394437902669

Śledź COSMOS 1642 w czasie rzeczywistym z AllMySat

Download on the App Store